Roanoke, VA

4:31 AM EST on November 17, 2019 (GMT -0500)
Roanoke Regional-Woodrum

Weather History for KROA - September, 2019

Change the Weather History Date:

Friday, September 20, 2019

  Actual Average Record
Temperature  
Mean Temperature 65 °F 66 °F  
Max Temperature 80 °F 77 °F 90 °F (1955)
Min Temperature 49 °F 56 °F 36 °F (1929)
Degree Days  
Heating Degree Days 0 2  
Month to date heating degree days 1 15  
Since 1 July heating degree days 1 16  
Cooling Degree Days 0 3  
Month to date cooling degree days 210 115  
Year to date cooling degree days 1573 1162  
Growing Degree Days 14 (Base 50)    
Moisture  
Dew Point 52 °F    
Average Humidity 66    
Maximum Humidity 89    
Minimum Humidity 42    
Precipitation  
Precipitation 0.00 in 0.12 in 1.90 in (1946)
Month to date precipitation 0.80 2.72  
Year to date precipitation 31.50 30.85  
Snow  
Snow 0.00 in - - ()
Month to date snowfall 0.0  
Since 1 July snowfall T  
Since 1 September snowfall 0.0  
Snow Depth 0.00 in    
Sea Level Pressure  
Sea Level Pressure 30.30 in    
Wind  
Wind Speed 2 mph (SSE)    
Max Wind Speed 10 mph    
Max Gust Speed 13 mph    
Visibility 10 miles    
Events      
T = Trace of Precipitation, MM = Missing Value Source: NWS Daily Summary

Daily Weather History Graph

Daily Weather History Graph

Search for Another Location

Airport or City:

Astronomy

Sep. 20, 2019 Rise Set
Actual Time 7:05 AM EDT 7:20 PM EDT
Civil Twilight 6:39 AM EDT 7:46 PM EDT
Nautical Twilight 6:09 AM EDT 8:16 PM EDT
Astronomical Twilight 5:38 AM EDT 8:47 PM EDT
Moon 11:16 PM EDT (9/20) 1:01 PM EDT (9/20)
Length of Visible Light 13h 06m
Length of Day
12h 14m
Waning Gibbous, 65% of the Moon is Illuminated
Sep 20
Waning Gibbous
Sep 21
Last Quarter
Sep 28
New
Oct 5
First Quarter
Oct 13
Full

Hourly Weather History & Observations

Time (EDT) Temp. Dew Point Humidity Pressure Visibility Wind Dir Wind Speed Gust Speed Precip Events Conditions
12:54 AM 54.0 °F 50.0 °F 86% 30.31 in 10.0 mi Calm Calm - N/A   Clear
1:54 AM 53.1 °F 48.9 °F 86% 30.32 in 10.0 mi Calm Calm - N/A   Clear
2:54 AM 53.1 °F 48.9 °F 86% 30.31 in 10.0 mi Calm Calm - N/A   Clear
3:54 AM 53.1 °F 50.0 °F 89% 30.31 in 10.0 mi Calm Calm - N/A   Clear
4:54 AM 50.0 °F 46.9 °F 89% 30.32 in 10.0 mi Calm Calm - N/A   Clear
5:54 AM 50.0 °F 46.9 °F 89% 30.33 in 10.0 mi Calm Calm - N/A   Clear
6:54 AM 51.1 °F 48.0 °F 89% 30.34 in 10.0 mi Calm Calm - N/A   Clear
7:54 AM 51.1 °F 48.9 °F 92% 30.35 in 10.0 mi Calm Calm - N/A   Clear
8:54 AM 55.9 °F 51.1 °F 84% 30.36 in 10.0 mi Calm Calm - N/A   Clear
9:54 AM 61.0 °F 51.1 °F 70% 30.35 in 10.0 mi Calm Calm - N/A   Clear
10:54 AM 64.9 °F 51.1 °F 61% 30.34 in 10.0 mi South 6.9 mph - N/A   Clear
11:54 AM 70.0 °F 52.0 °F 53% 30.32 in 10.0 mi Calm Calm - N/A   Clear
1:54 PM 73.9 °F 53.1 °F 48% 30.29 in 10.0 mi SSE 6.9 mph - N/A   Scattered Clouds
2:54 PM 75.9 °F 54.0 °F 46% 30.26 in 10.0 mi South 3.5 mph - N/A   Scattered Clouds
3:54 PM 79.0 °F 54.0 °F 42% 30.24 in 10.0 mi Variable 5.8 mph - N/A   Partly Cloudy
5:54 PM 79.0 °F 55.9 °F 45% 30.23 in 10.0 mi SE 8.1 mph - N/A   Partly Cloudy
6:54 PM 77.0 °F 55.9 °F 48% 30.24 in 10.0 mi SSE 8.1 mph - N/A   Partly Cloudy
7:54 PM 73.0 °F 57.0 °F 57% 30.25 in 10.0 mi ESE 8.1 mph - N/A   Clear
8:54 PM 71.1 °F 57.0 °F 61% 30.25 in 10.0 mi ESE 8.1 mph - N/A   Clear
9:54 PM 69.1 °F 57.0 °F 65% 30.27 in 10.0 mi Calm Calm - N/A   Clear
10:54 PM 69.1 °F 57.0 °F 65% 30.27 in 10.0 mi Calm Calm - N/A   Clear
11:54 PM 66.0 °F 57.0 °F 73% 30.27 in 10.0 mi Calm Calm - N/A   Clear